Home   Weather   Varel   Past weeks

Flag for Germany Past Weather in Varel, Lower Saxony, Germany — Yesterday and Last 2 Weeks

Now
43 °F

Passing clouds.


Feels Like: 36 °F
Forecast: 40 / 46 °F
Wind: 13 mph from Southwest

Location: Wittmundhaven

Current Time: Feb 21, 2017 at 11:03:00 pm

Latest Report: Feb 21, 2017 at 10:20 pm


Visibility: N/A

Pressure: 29.74 "Hg

Humidity: 87%

Dew Point: 39 °F

Location of VarelLocation

Past Weather in Varel — Graph

°F

Varel Temperature Yesterday

Maximum temperature yesterday: 50 °F (at 4:20 pm)
Minimum temperature yesterday: 43 °F (at 12:20 am)
Average temperature yesterday: 47 °F

High & Low Weather Summary for the Past Weeks

 TemperatureHumidityPressure
High52 °F (Feb 15, 2:20 pm)100% (Feb 16, 6:20 am)30.57 "Hg (Feb 16, 6:20 am)
Low23 °F (Feb 10, 5:20 am)49% (Feb 14, 3:20 pm)29.74 "Hg (Feb 20, 5:05 pm)
Average36 °F83%30.26 "Hg
* Reported Feb 6 9:20 pm — Feb 21 9:20 pm, Varel, Weather by CustomWeather, © 2017

Note: Actual official high and low records may vary slightly from our data, if they occured in-between our weather recording intervals... More about our weather records

Advertising

Varel Weather History for the Previous 24 Hours

Scroll right to see more
 ConditionsComfort  
Time TempWeatherWind HumidityBarometerVisibility
9:20 pm
Tue, Feb 21
43 °FPassing clouds.10 mph87%29.77 "HgN/A
8:34 pm41 °FPassing clouds.8 mph87%29.80 "HgN/A
7:20 pm39 °FPassing clouds.6 mph93%29.83 "HgN/A
6:20 pm43 °FPassing clouds.7 mph87%29.86 "HgN/A
5:20 pm45 °FPartly sunny.10 mph81%29.86 "HgN/A
4:20 pm46 °FScattered clouds.14 mph76%29.89 "HgN/A
3:20 pm46 °FScattered clouds.15 mph71%29.89 "HgN/A
2:20 pm46 °FPassing clouds.17 mph76%29.89 "HgN/A
1:20 pm48 °FPassing clouds.16 mph71%29.89 "HgN/A
12:20 pm48 °FScattered clouds.17 mph71%29.86 "HgN/A
11:20 am46 °FScattered clouds.16 mph82%29.86 "HgN/A
10:20 am46 °FScattered clouds.15 mph82%29.86 "HgN/A
9:20 am43 °FScattered clouds.14 mph93%29.83 "HgN/A
8:20 am43 °FPartly sunny.13 mph93%29.83 "HgN/A
7:20 am43 °FPassing clouds.14 mph93%29.80 "HgN/A
6:20 am45 °FPassing clouds.13 mph87%29.77 "HgN/A
5:20 am43 °FPartly cloudy.17 mph93%29.77 "HgN/A
4:20 am43 °FPartly cloudy.14 mph93%29.77 "HgN/A
3:50 am43 °FPartly cloudy.13 mph93%29.77 "Hg5 mi
3:20 am43 °FPassing clouds.13 mph100%29.77 "Hg5 mi
2:20 am45 °FPassing clouds.12 mph93%29.80 "Hg5 mi
1:49 am45 °FPartly cloudy.9 mph93%29.77 "Hg5 mi
1:20 am45 °FPassing clouds.12 mph93%29.80 "Hg5 mi
12:20 am45 °FPassing clouds.13 mph93%29.80 "Hg5 mi
11:20 pm
Mon, Feb 20
46 °FPartly cloudy.14 mph93%29.80 "Hg5 mi
Weather by CustomWeather, © 2017

See weather overviewHow to use our weather pages